User: anonymous   Login
Location: Oberwangen
(47.4286°N, 8.9679°E)
Time: 11:36:47
(UTC+00:00)
Language:

Cosmos 2219 Rocket - Orbit

View from above orbital plane
View from above orbital plane
View from above satellite
View from above satellite

Ground track
Ground track

The orbit data is extracted from the following two-line orbital elements,

1 22220U 92076B   21259.62162375  .00000241  00000-0  14495-3 0  9996
2 22220  71.0021  31.3110 0010901  62.3253 308.7782 14.16474461490277
Epoch (UTC): 16 September 2021 14:55:08
Eccentricity: 0.0010901
inclination: 71.0021°
perigee height: 829 km
apogee height: 845 km
right ascension of ascending node: 31.3110°
argument of perigee: 62.3253°
revolutions per day: 14.16474461
mean anomaly at epoch: 308.7782°
orbit number at epoch: 49027

The dashed part of the orbit path shows where the satellite is in the earth's shadow,  

DLR